Previsão horária em Kaa-Khem

Hoje, 21 Junho, Segunda-feira

Tempo Temperatura Precipitação Vento Pressão Humidade
00:00 +18°C° 0 mm 4 m/s 692 mmHg 72%
01:00 +18°C° 0.1 mm 3 m/s 692 mmHg 76%
02:00 +17°C° 0.1 mm 2 m/s 692 mmHg 80%
03:00 +16°C° 0.1 mm 2 m/s 692 mmHg 84%
04:00 +17°C° 0.2 mm 2 m/s 692 mmHg 81%
05:00 +19°C° 0.2 mm 1 m/s 692 mmHg 78%
06:00 +19°C° 0.2 mm 1 m/s 693 mmHg 74%
07:00 +15°C° 0.8 mm 4 m/s 693 mmHg 78%
08:00 +14°C° 0.8 mm 6 m/s 694 mmHg 81%
09:00 +11°C° 0.8 mm 8 m/s 695 mmHg 85%
10:00 +11°C° 0.3 mm 7 m/s 696 mmHg 78%
11:00 +13°C° 0.3 mm 6 m/s 696 mmHg 71%
12:00 +14°C° 0.3 mm 4 m/s 697 mmHg 64%
13:00 +15°C° 0 mm 4 m/s 697 mmHg 58%
14:00 +17°C° 0 mm 3 m/s 697 mmHg 52%
15:00 +18°C° 0 mm 3 m/s 697 mmHg 46%
16:00 +18°C° 0 mm 2 m/s 697 mmHg 45%
17:00 +19°C° 0 mm 2 m/s 698 mmHg 43%
18:00 +19°C° 0 mm 2 m/s 698 mmHg 41%
19:00 +17°C° 0 mm 2 m/s 698 mmHg 47%
20:00 +15°C° 0 mm 2 m/s 698 mmHg 53%
21:00 +14°C° 0 mm 1 m/s 698 mmHg 59%
22:00 +13°C° 0 mm 2 m/s 697 mmHg 62%
23:00 +13°C° 0 mm 2 m/s 697 mmHg 64%

Amanhã, 22 Junho, Terça-feira

Tempo Temperatura Precipitação Vento Pressão Humidade
00:00 +12°C° 0 mm 2 m/s 697 mmHg 66%
01:00 +12°C° 0 mm 2 m/s 697 mmHg 67%
02:00 +10°C° 0 mm 2 m/s 697 mmHg 69%
03:00 +10°C° 0 mm 2 m/s 697 mmHg 70%
04:00 +12°C° 0 mm 1 m/s 697 mmHg 65%
05:00 +14°C° 0 mm 1 m/s 697 mmHg 59%
06:00 +15°C° 0 mm 1 m/s 697 mmHg 54%
07:00 +18°C° 0 mm 1 m/s 697 mmHg 48%
08:00 +20°C° 0 mm 1 m/s 696 mmHg 42%
09:00 +21°C° 0 mm 2 m/s 696 mmHg 37%
10:00 +24°C° 0 mm 2 m/s 696 mmHg 33%
11:00 +25°C° 0 mm 2 m/s 695 mmHg 29%
12:00 +27°C° 0 mm 2 m/s 695 mmHg 25%
13:00 +28°C° 0 mm 2 m/s 695 mmHg 24%
14:00 +29°C° 0 mm 1 m/s 694 mmHg 23%
15:00 +30°C° 0 mm 1 m/s 694 mmHg 21%
16:00 +30°C° 0 mm 1 m/s 693 mmHg 24%
17:00 +29°C° 0 mm 1 m/s 693 mmHg 26%
18:00 +29°C° 0 mm 1 m/s 692 mmHg 29%
19:00 +26°C° 0 mm 2 m/s 692 mmHg 32%
20:00 +24°C° 0 mm 2 m/s 691 mmHg 34%
21:00 +21°C° 0 mm 2 m/s 691 mmHg 37%
22:00 +20°C° 0 mm 3 m/s 691 mmHg 42%
23:00 +19°C° 0 mm 3 m/s 691 mmHg 48%

Depois de amanhã, 23 Junho, Quarta-feira

Tempo Temperatura Precipitação Vento Pressão Humidade
00:00 +18°C° 0 mm 3 m/s 691 mmHg 54%
01:00 +17°C° 0.2 mm 4 m/s 692 mmHg 64%
02:00 +14°C° 0.2 mm 5 m/s 693 mmHg 74%
03:00 +13°C° 0.2 mm 5 m/s 694 mmHg 85%
04:00 +13°C° 0.2 mm 5 m/s 695 mmHg 80%
05:00 +13°C° 0.2 mm 4 m/s 696 mmHg 75%
06:00 +14°C° 0.2 mm 4 m/s 697 mmHg 71%
07:00 +14°C° 0.1 mm 4 m/s 697 mmHg 68%
08:00 +16°C° 0.1 mm 3 m/s 698 mmHg 65%
09:00 +17°C° 0.1 mm 3 m/s 698 mmHg 62%
10:00 +17°C° 0 mm 3 m/s 698 mmHg 61%
11:00 +17°C° 0 mm 3 m/s 698 mmHg 61%
12:00 +17°C° 0 mm 3 m/s 698 mmHg 60%
13:00 +18°C° 0 mm 3 m/s 698 mmHg 55%
14:00 +19°C° 0 mm 3 m/s 698 mmHg 51%
15:00 +20°C° 0 mm 3 m/s 698 mmHg 46%
16:00 +20°C° 0 mm 3 m/s 697 mmHg 48%
17:00 +20°C° 0 mm 3 m/s 697 mmHg 49%
18:00 +19°C° 0 mm 3 m/s 697 mmHg 51%
19:00 +17°C° 1 mm 3 m/s 697 mmHg 61%
20:00 +16°C° 1 mm 3 m/s 697 mmHg 72%
21:00 +13°C° 1 mm 3 m/s 697 mmHg 82%
22:00 +13°C° 1.5 mm 2 m/s 698 mmHg 84%
23:00 +13°C° 1.5 mm 1 m/s 698 mmHg 87%

24 Junho, Quinta-feira

Tempo Temperatura Precipitação Vento Pressão Humidade
00:00 +13°C° 1.5 mm 1 m/s 698 mmHg 89%
01:00 +12°C° 0.1 mm 1 m/s 698 mmHg 88%
02:00 +12°C° 0.1 mm 1 m/s 698 mmHg 86%
03:00 +12°C° 0.1 mm 1 m/s 698 mmHg 85%
04:00 +12°C° 0 mm 1 m/s 698 mmHg 83%
05:00 +12°C° 0 mm 0 m/s 698 mmHg 80%
06:00 +12°C° 0 mm 0 m/s 698 mmHg 77%
07:00 +13°C° 0 mm 0 m/s 698 mmHg 72%
08:00 +16°C° 0 mm 1 m/s 698 mmHg 66%
09:00 +18°C° 0 mm 1 m/s 698 mmHg 60%
10:00 +19°C° 0 mm 1 m/s 697 mmHg 55%
11:00 +20°C° 0 mm 1 m/s 697 mmHg 50%
12:00 +20°C° 0 mm 2 m/s 697 mmHg 44%
13:00 +21°C° 0 mm 2 m/s 696 mmHg 41%
14:00 +23°C° 0 mm 2 m/s 696 mmHg 38%
15:00 +24°C° 0 mm 2 m/s 695 mmHg 34%
16:00 +24°C° 0 mm 2 m/s 695 mmHg 35%
17:00 +24°C° 0 mm 2 m/s 695 mmHg 35%
18:00 +24°C° 0 mm 2 m/s 694 mmHg 36%
19:00 +21°C° 0 mm 3 m/s 694 mmHg 39%
20:00 +19°C° 0 mm 3 m/s 694 mmHg 42%
21:00 +17°C° 0 mm 3 m/s 694 mmHg 46%
22:00 +17°C° 0 mm 3 m/s 693 mmHg 46%
23:00 +16°C° 0 mm 3 m/s 693 mmHg 47%

25 Junho, Sexta-feira

Tempo Temperatura Precipitação Vento Pressão Humidade
00:00 +16°C° 0 mm 2 m/s 693 mmHg 48%
01:00 +15°C° 0 mm 2 m/s 693 mmHg 49%
02:00 +15°C° 0 mm 2 m/s 693 mmHg 49%
03:00 +15°C° 0 mm 2 m/s 692 mmHg 50%
04:00 +16°C° 0 mm 1 m/s 693 mmHg 48%
05:00 +18°C° 0 mm 1 m/s 693 mmHg 46%
06:00 +19°C° 0 mm 1 m/s 693 mmHg 43%
07:00 +21°C° 0 mm 1 m/s 693 mmHg 41%
08:00 +23°C° 0 mm 1 m/s 693 mmHg 38%
09:00 +24°C° 0 mm 1 m/s 693 mmHg 35%
10:00 +25°C° 0 mm 2 m/s 693 mmHg 34%
11:00 +26°C° 0 mm 3 m/s 693 mmHg 32%
12:00 +28°C° 0 mm 4 m/s 693 mmHg 31%
13:00 +27°C° 0 mm 4 m/s 693 mmHg 32%
14:00 +27°C° 0 mm 5 m/s 693 mmHg 34%
15:00 +27°C° 0 mm 6 m/s 693 mmHg 36%
16:00 +24°C° 0 mm 6 m/s 694 mmHg 42%
17:00 +22°C° 0 mm 6 m/s 694 mmHg 48%
18:00 +20°C° 0 mm 6 m/s 695 mmHg 54%
19:00 +19°C° 0 mm 5 m/s 695 mmHg 58%
20:00 +16°C° 0 mm 5 m/s 696 mmHg 62%
21:00 +14°C° 0 mm 4 m/s 696 mmHg 67%
22:00 +13°C° 0 mm 4 m/s 696 mmHg 68%
23:00 +13°C° 0 mm 3 m/s 697 mmHg 69%

26 Junho, Sábado

Tempo Temperatura Precipitação Vento Pressão Humidade
00:00 +12°C° 0 mm 3 m/s 697 mmHg 70%
01:00 +12°C° 0 mm 3 m/s 697 mmHg 70%
02:00 +12°C° 0 mm 3 m/s 697 mmHg 71%
03:00 +11°C° 0 mm 3 m/s 697 mmHg 72%
04:00 +13°C° 0 mm 2 m/s 697 mmHg 70%
05:00 +13°C° 0 mm 2 m/s 697 mmHg 68%
06:00 +13°C° 0 mm 2 m/s 697 mmHg 66%
07:00 +13°C° 0 mm 3 m/s 697 mmHg 64%
08:00 +13°C° 0 mm 3 m/s 697 mmHg 63%
09:00 +14°C° 0 mm 4 m/s 697 mmHg 61%
10:00 +13°C° 0 mm 4 m/s 697 mmHg 63%
11:00 +13°C° 0 mm 4 m/s 697 mmHg 65%
12:00 +12°C° 0 mm 4 m/s 697 mmHg 68%
13:00 +12°C° 0 mm 4 m/s 697 mmHg 69%
14:00 +12°C° 0 mm 4 m/s 698 mmHg 71%
15:00 +11°C° 0 mm 4 m/s 698 mmHg 72%
16:00 +11°C° 0 mm 4 m/s 698 mmHg 72%
17:00 +11°C° 0 mm 4 m/s 698 mmHg 72%
18:00 +11°C° 0 mm 4 m/s 698 mmHg 72%
19:00 +11°C° 0 mm 3 m/s 699 mmHg 74%
20:00 +10°C° 0 mm 3 m/s 699 mmHg 75%
21:00 +10°C° 0 mm 2 m/s 699 mmHg 77%
22:00 +10°C° 0 mm 2 m/s 699 mmHg 78%
23:00 +10°C° 0 mm 2 m/s 699 mmHg 79%
Mostrar mais

Necessitamos do seu Consentimento

A Meteoprog e os seus Fornecedores de Serviços podem armazenar e aceder a dados pessoais como cookies, identificadores do dispositivo ou outras tecnologias semelhantes existentes no seu dispositivo e processar estes dados para personalizar conteúdos e anúncios, assim como funcionalidades nas redes sociais e análise de tráfego.

  • Armazenar e/ou aceder a informações no seu dispositivo

    Os cookies, identificadores do dispositivo ou outras informações podem ser armazenados ou acedidos no seu dispositivo, para os fins acima indicados.

  • Anúncios e conteúdos personalizados, medição de anúncios e conteúdos, dados sobre o público-alvo e desenvolvimento de produtos

    Os anúncios e os conteúdos podem ser personalizados com base num perfil. Podem ser adicionados dados adicionais para uma maior personalização dos anúncios e dos conteúdos. A eficácia dos anúncios e dos conteúdos pode ser medida. Podem ser obtidas informações sobre o público que visualizou os anúncios e os conteúdos. Estes dados podem ser usados para desenvolver ou melhorar sistemas, softwares ou a experiência do utilizador.

Ao clicar em "Eu concordo”, permitirá o uso de cookies, identificadores do dispositivo e web beacons mencionados ou outras tecnologias semelhantes. As configurações do navegador do seu dispositivo podem ser alteradas.

Para certos fins, podem ser invocados interesses legítimos ao invés de consentimento. Pode ler mais informação sobre este assunto na nossa Política de Privacidade e Cookies.